$DATE,$TIME,DM0600B,DM0602B,DM0604B,DM0614B,DM0616B,DM0618B,DM0624B,DM0628B,DM0630B,DM0634B,DM0606B,DM0608B,DM0610B
12/02/94,00:00:00,27,28,31,4,0,70,67,66,52,0,8,6,7
12/02/94,00:05:00,22,43,37,10,0,71,67,66,54,0,9,7,7
12/02/94,00:10:00,35,32,29,17,0,71,68,66,53,0,9,7,7
12/02/94,00:15:00,22,28,34,18,0,71,68,66,54,0,9,7,7
12/02/94,00:20:00,14,28,32,2,0,71,68,66,52,0,9,7,7
12/02/94,00:25:00,29,22,30,18,0,71,68,66,52,0,9,6,8
12/02/94,00:30:00,25,32,40,26,0,71,68,66,52,0,8,6,7
12/02/94,00:35:00,41,27,26,17,0,71,68,66,51,0,9,6,7
12/02/94,00:40:00,24,34,34,16,0,71,68,66,54,0,8,6,7
12/02/94,00:45:00,37,36,37,3,0,71,68,66,54,0,8,6,7
12/02/94,00:50:00,36,42,40,21,0,71,68,66,54,0,8,6,6
12/02/94,00:55:00,28,28,19,17,0,71,68,66,56,0,8,6,6
12/02/94,01:00:00,24,18,27,2,0,71,68,66,56,0,8,7,6
12/02/94,01:05:00,25,24,29,15,0,71,68,66,56,0,8,8,7
12/02/94,01:10:00,8,19,28,12,0,71,68,66,56,0,9,7,6
12/02/94,01:15:00,17,18,29,6,0,71,68,66,56,0,9,7,6
12/02/94,01:20:00,32,14,24,15,0,71,68,66,58,0,9,7,6
12/02/94,01:25:00,33,30,29,9,0,71,68,66,58,0,9,7,7
12/02/94,01:30:00,33,40,36,20,0,71,67,66,58,0,9,7,7
12/02/94,01:35:00,27,25,31,11,0,69,66,66,56,0,9,7,7
12/02/94,01:40:00,20,12,17,13,0,66,63,66,56,0,9,7,7
12/02/94,01:45:00,34,31,34,3,0,61,59,66,56,0,9,7,7
12/02/94,01:50:00,42,37,38,25,0,56,54,69,56,0,9,7,7
12/02/94,01:55:00,31,27,30,12,0,54,52,69,56,0,9,8,7
12/02/94,02:00:00,26,25,26,17,0,54,51,68,58,0,9,8,7
12/02/94,02:05:00,34,38,39,26,0,55,53,68,58,0,9,7,7
12/02/94,02:10:00,38,45,42,35,0,55,53,69,58,0,9,7,7
12/02/94,02:15:00,37,40,42,13,0,56,53,69,56,0,9,7,7
12/02/94,02:20:00,29,27,24,15,0,59,57,69,56,0,9,7,7
12/02/94,02:25:00,27,17,24,3,0,64,61,69,56,0,9,7,7
12/02/94,02:30:00,33,29,24,11,0,66,63,66,56,0,9,7,7
12/02/94,02:35:00,22,26,30,12,0,67,65,66,58,0,9,7,8
12/02/94,02:40:00,24,31,35,9,0,67,64,66,58,0,9,7,8
12/02/94,02:45:00,34,31,33,8,0,67,64,66,58,0,9,7,8
12/02/94,02:50:00,12,17,33,8,0,66,64,66,47,0,9,7,7
12/02/94,02:55:00,36,35,32,15,0,66,63,65,58,0,9,7,7
12/02/94,03:00:00,17,17,23,5,0,66,63,66,61,0,9,7,7
12/02/94,03:05:00,41,38,37,17,0,65,63,66,62,0,9,7,7
12/02/94,03:10:00,29,21,33,7,0,65,62,67,62,0,9,6,7
12/02/94,03:15:00,31,30,31,22,0,65,62,66,63,0,9,6,7
12/02/94,03:20:00,30,11,24,14,0,64,61,67,63,0,9,6,7
12/02/94,03:25:00,35,34,35,15,0,64,61,68,63,0,9,6,7
12/02/94,03:30:00,31,30,39,21,0,63,61,68,66,0,9,6,7
12/02/94,03:35:00,46,33,42,14,0,63,60,68,62,0,9,6,7
12/02/94,03:40:00,31,28,34,21,0,62,60,68,80,0,9,6,8
12/02/94,03:45:00,27,25,28,13,0,62,59,68,61,0,8,7,8
12/02/94,03:50:00,35,23,29,17,0,62,59,67,56,0,9,7,7
12/02/94,03:55:00,44,39,41,19,0,61,58,67,58,0,9,7,7
12/02/94,04:00:00,42,33,37,23,0,60,58,67,45,0,9,6,7
12/02/94,04:05:00,40,29,31,21,0,60,57,67,46,0,9,7,7
12/02/94,04:10:00,29,26,29,6,0,59,57,67,44,0,9,6,7
12/02/94,04:15:00,37,37,37,19,0,59,56,67,44,0,9,6,7
12/02/94,04:20:00,24,25,33,18,0,58,56,66,44,0,9,6,7
12/02/94,04:25:00,31,34,31,19,0,58,55,66,46,0,9,6,7
12/02/94,04:30:00,44,33,33,20,0,57,55,66,44,0,9,6,7
12/02/94,04:35:00,29,26,32,20,0,57,54,66,46,0,9,6,7
12/02/94,04:40:00,41,34,29,21,0,56,54,66,45,0,9,7,7
12/02/94,04:45:00,41,35,39,19,0,55,53,66,44,0,9,7,8
12/02/94,04:50:00,18,14,21,10,0,55,52,66,44,0,9,7,8
12/02/94,04:55:00,34,35,31,21,0,54,52,66,44,0,9,7,7
12/02/94,05:00:00,29,29,25,16,0,54,51,66,44,0,9,7,7
12/02/94,05:05:00,39,33,38,19,0,53,51,66,47,0,9,7,7
12/02/94,05:10:00,25,22,25,12,0,53,50,66,50,0,9,7,7
12/02/94,05:15:00,24,24,27,11,0,52,50,66,49,0,9,6,7
12/02/94,05:20:00,37,28,37,20,0,51,49,66,49,0,9,6,7
12/02/94,05:25:00,36,28,31,19,0,51,48,66,47,0,9,6,7
12/02/94,05:30:00,35,32,35,19,0,50,48,66,47,0,9,6,7
12/02/94,05:35:00,29,22,40,19,0,49,47,66,47,0,9,7,7
12/02/94,05:40:00,31,29,32,23,0,49,47,66,47,0,9,7,6
12/02/94,05:45:00,36,28,40,20,0,48,46,66,47,0,9,7,7
12/02/94,05:50:00,38,33,44,24,0,47,45,66,49,0,9,7,8
12/02/94,05:55:00,33,24,34,17,0,47,45,66,49,0,9,6,7
12/02/94,06:00:00,28,26,35,5,0,46,44,66,49,0,9,6,7
12/02/94,06:05:00,26,19,24,15,0,45,43,66,47,0,9,6,7
12/02/94,06:10:00,45,37,40,29,0,45,43,66,47,0,9,6,7
12/02/94,06:15:00,29,27,38,21,0,44,42,66,47,0,9,6,7
12/02/94,06:20:00,41,24,40,28,0,43,41,66,47,0,9,6,7
12/02/94,06:25:00,29,22,30,16,0,43,41,66,55,0,9,6,7
12/02/94,06:30:00,33,26,39,25,0,42,40,66,57,0,9,7,7
12/02/94,06:35:00,34,26,37,20,0,41,40,67,57,0,9,7,7
12/02/94,06:40:00,25,28,37,22,0,41,39,67,57,0,9,7,7
12/02/94,06:45:00,37,31,35,21,0,40,38,68,56,0,9,7,7
12/02/94,06:50:00,25,19,27,15,0,40,38,67,56,0,9,7,7
12/02/94,06:55:00,32,20,25,22,0,39,37,67,56,0,9,7,8
12/02/94,07:00:00,28,29,36,19,0,38,37,67,55,0,9,7,7
12/02/94,07:05:00,32,30,34,23,0,38,36,67,56,0,8,7,7
12/02/94,07:10:00,14,17,37,28,0,37,35,67,57,0,8,7,7
12/02/94,07:15:00,41,30,42,25,0,36,35,67,57,0,9,7,6
12/02/94,07:20:00,30,32,44,27,0,36,34,67,57,0,9,7,7
12/02/94,07:25:00,41,28,35,28,0,35,33,66,47,0,9,7,6
12/02/94,07:30:00,37,18,28,25,0,34,33,66,47,0,9,8,6
12/02/94,07:35:00,39,25,34,25,0,34,32,66,47,0,9,7,6
12/02/94,07:40:00,29,26,35,21,0,33,32,66,47,0,9,7,7
12/02/94,07:45:00,24,21,29,19,0,33,31,66,47,0,9,7,6
12/02/94,07:50:00,31,34,33,23,0,32,30,66,45,0,9,6,6
12/02/94,07:55:00,38,29,39,29,0,31,30,66,45,0,9,6,7
12/02/94,08:00:00,15,21,25,21,0,31,29,66,45,0,9,6,8
12/02/94,08:05:00,36,31,42,27,0,30,29,66,43,0,9,6,7
12/02/94,08:10:00,36,24,32,24,0,30,28,66,43,0,9,6,7
12/02/94,08:15:00,21,17,27,18,0,29,28,66,43,0,9,6,7
12/02/94,08:20:00,28,34,42,33,0,28,27,66,43,0,9,6,7
12/02/94,08:25:00,34,34,44,14,0,28,27,66,43,0,9,7,7
12/02/94,08:30:00,32,26,32,23,0,27,26,67,45,0,9,7,7
12/02/94,08:35:00,24,12,23,12,0,27,26,67,45,0,10,7,7
12/02/94,08:40:00,35,32,34,23,0,26,25,67,45,0,10,7,7
12/02/94,08:45:00,20,17,18,14,0,26,24,67,43,0,10,7,7
12/02/94,08:50:00,23,20,27,21,0,25,24,67,43,0,10,7,7
12/02/94,08:55:00,15,14,16,12,0,25,24,67,43,0,9,7,7
12/02/94,09:00:00,26,25,33,27,0,24,23,67,43,0,9,15,7
12/02/94,09:05:00,28,28,29,16,0,24,23,67,43,0,9,17,8
12/02/94,09:10:00,19,18,22,25,0,23,22,67,37,0,9,13,8
12/02/94,09:15:00,13,11,16,8,0,23,22,67,54,0,9,10,8
12/02/94,09:20:00,23,8,11,9,0,22,21,68,54,0,9,10,7
12/02/94,09:25:00,17,21,23,16,0,22,21,67,52,0,20,22,13
12/02/94,09:30:00,15,14,21,10,0,21,21,67,52,0,16,18,14
12/02/94,09:35:00,26,16,20,13,0,21,20,67,52,0,13,13,11
12/02/94,09:40:00,23,18,19,17,0,21,20,68,77,0,11,11,9
12/02/94,09:45:00,18,12,9,18,0,20,19,68,52,0,15,20,9
12/02/94,09:50:00,6,5,18,2,0,20,19,68,54,0,19,21,18
12/02/94,09:55:00,9,15,28,13,0,19,19,68,46,0,14,15,16
12/02/94,10:00:00,20,5,9,8,0,19,18,68,46,0,24,24,12
12/02/94,10:05:00,14,8,18,13,0,19,18,68,44,0,18,22,10
12/02/94,10:10:00,16,3,8,8,0,18,18,68,36,0,14,15,17
12/02/94,10:15:00,8,8,10,7,0,18,17,68,36,0,20,23,17
12/02/94,10:20:00,8,3,10,3,0,18,17,68,36,0,15,22,13
12/02/94,10:25:00,13,10,10,3,0,17,17,68,36,0,21,15,18
12/02/94,10:30:00,21,8,13,6,0,17,16,68,38,0,20,25,17
12/02/94,10:35:00,3,5,4,2,0,17,16,69,38,0,17,22,14
12/02/94,10:40:00,0,3,13,7,0,16,16,69,38,0,25,18,23
12/02/94,10:45:00,0,4,6,4,0,16,15,69,36,0,17,28,15
12/02/94,10:50:00,12,2,5,8,0,16,15,69,36,0,26,19,24
12/02/94,10:55:00,1,12,12,12,0,16,15,69,36,0,18,20,16
12/02/94,11:00:00,6,4,12,5,0,15,15,69,36,0,26,29,25
12/02/94,11:05:00,10,1,1,0,0,15,15,69,36,0,21,20,17
12/02/94,11:10:00,8,7,3,5,0,15,14,69,36,0,24,29,24
12/02/94,11:15:00,11,8,14,9,0,15,14,69,38,0,27,24,22
12/02/94,11:20:00,2,3,5,2,0,15,14,69,38,0,21,22,20
12/02/94,11:25:00,1,0,6,6,0,14,14,69,36,0,26,32,25
12/02/94,11:30:00,9,5,15,2,0,14,14,69,36,0,26,21,23
12/02/94,11:35:00,0,0,4,0,0,14,14,69,36,0,22,30,19
12/02/94,11:40:00,0,0,0,0,0,14,13,69,46,0,33,27,29
12/02/94,11:45:00,0,0,0,0,0,14,13,69,37,0,29,27,30
12/02/94,11:50:00,0,0,0,0,0,14,13,69,37,0,25,36,25
12/02/94,11:55:00,0,0,0,0,0,14,13,70,39,0,36,25,23
12/02/94,12:00:00,0,0,0,0,0,14,13,70,38,0,32,34,33
12/02/94,12:05:00,0,0,0,0,0,13,13,70,39,0,26,30,33
12/02/94,12:10:00,0,0,0,0,0,13,13,70,37,0,37,31,29
12/02/94,12:15:00,0,0,0,0,0,13,13,70,37,0,31,38,25
12/02/94,12:20:00,0,0,0,0,0,13,13,70,37,0,28,26,31
12/02/94,12:25:00,0,0,0,0,0,13,13,70,37,0,38,35,37
12/02/94,12:30:00,0,0,3,0,0,13,13,70,37,0,32,35,32
12/02/94,12:35:00,0,0,0,0,0,13,13,70,39,0,29,28,26
12/02/94,12:40:00,0,0,0,0,0,13,13,70,39,0,38,37,29
12/02/94,12:45:00,0,0,0,0,0,13,13,70,37,0,33,31,38
12/02/94,12:50:00,0,0,0,0,0,13,13,70,36,0,29,32,34
12/02/94,12:55:00,0,0,0,0,0,13,13,70,36,0,38,39,28
12/02/94,13:00:00,1,3,0,0,0,13,13,70,36,0,32,27,27
12/02/94,13:05:00,0,0,0,0,0,13,13,70,36,0,29,35,35
12/02/94,13:10:00,0,0,0,0,0,13,13,70,36,0,39,33,36
12/02/94,13:15:00,4,0,0,0,0,13,13,70,36,0,33,30,30
12/02/94,13:20:00,0,0,0,0,0,13,13,70,38,0,28,39,26
12/02/94,13:25:00,0,0,0,0,0,14,13,70,38,0,39,28,33
12/02/94,13:30:00,18,4,5,0,0,14,13,70,36,0,32,37,37
12/02/94,13:35:00,0,0,5,0,0,14,13,70,36,0,27,26,28
12/02/94,13:40:00,0,0,0,0,0,14,13,70,36,0,39,35,26
12/02/94,13:45:00,0,0,3,0,0,14,13,70,36,0,33,32,35
12/02/94,13:50:00,0,0,9,0,0,14,13,70,59,0,28,32,35
12/02/94,13:55:00,0,2,0,0,0,14,14,70,36,0,39,38,28
12/02/94,14:00:00,0,0,2,0,0,14,14,70,38,0,33,28,26
12/02/94,14:05:00,0,0,0,0,0,15,14,70,37,0,27,38,32
12/02/94,14:10:00,0,0,2,0,0,15,14,70,38,0,38,26,37
12/02/94,14:15:00,2,0,0,0,0,15,14,70,35,0,32,34,31
12/02/94,14:20:00,0,0,0,0,0,15,14,70,35,0,27,29,25
12/02/94,14:25:00,0,0,0,0,0,15,15,70,35,0,38,32,30
12/02/94,14:30:00,0,0,0,0,0,16,15,70,35,0,32,37,37
12/02/94,14:35:00,0,0,0,0,0,16,15,70,35,0,28,28,31
12/02/94,14:40:00,0,0,0,0,0,16,15,70,35,0,38,38,26
12/02/94,14:45:00,0,0,0,0,0,16,16,70,37,0,33,27,30
12/02/94,14:50:00,0,0,6,0,0,17,16,70,38,0,27,36,37
12/02/94,14:55:00,0,0,0,0,0,17,16,70,36,0,38,28,32
12/02/94,15:00:00,0,0,0,0,0,17,16,70,36,0,32,34,28
12/02/94,15:05:00,8,6,8,0,0,17,17,70,35,0,27,32,26
12/02/94,15:10:00,0,0,2,0,0,18,17,70,36,0,37,31,35
12/02/94,15:15:00,0,3,9,0,0,18,17,70,36,0,31,36,33
12/02/94,15:20:00,0,0,0,0,0,18,18,70,36,0,27,27,29
12/02/94,15:25:00,0,0,0,0,0,19,18,70,37,0,35,37,24
12/02/94,15:30:00,0,0,0,0,0,19,18,70,37,0,32,26,31
12/02/94,15:35:00,0,0,1,0,0,20,19,70,37,0,27,35,36
12/02/94,15:40:00,0,0,0,0,0,20,19,70,35,0,37,28,30
12/02/94,15:45:00,0,0,0,0,0,20,20,70,36,0,32,33,26
12/02/94,15:50:00,0,0,0,0,0,21,20,70,35,0,27,33,26
12/02/94,15:55:00,0,0,0,0,0,21,20,70,35,0,37,30,34
12/02/94,16:00:00,0,0,0,0,0,22,21,70,35,0,32,36,34
12/02/94,16:05:00,0,0,0,0,0,22,21,70,35,0,27,27,29
12/02/94,16:10:00,3,0,11,0,0,23,22,70,37,0,34,37,24
12/02/94,16:15:00,0,0,0,0,0,23,22,70,37,0,33,26,31
12/02/94,16:20:00,0,0,0,0,0,24,23,70,35,0,26,35,35
12/02/94,16:25:00,0,0,0,0,0,24,23,70,39,0,33,27,30
12/02/94,16:30:00,0,0,0,0,0,25,24,70,36,0,33,32,25
12/02/94,16:35:00,0,0,0,0,0,25,24,70,36,0,26,31,26
12/02/94,16:40:00,0,0,0,0,0,26,24,69,36,0,32,29,32
12/02/94,16:45:00,0,0,0,0,0,26,25,70,35,0,34,35,34
12/02/94,16:50:00,1,1,7,0,0,27,25,70,38,0,28,26,29
12/02/94,16:55:00,0,0,0,0,0,27,26,70,37,0,26,36,24
12/02/94,17:00:00,0,0,0,0,0,28,27,70,37,0,35,24,25
12/02/94,17:05:00,0,0,0,0,0,28,27,70,35,0,31,35,30
12/02/94,17:10:00,0,0,0,0,0,29,28,70,35,0,25,24,31
12/02/94,17:15:00,0,0,0,0,0,30,28,70,35,0,30,32,27
12/02/94,17:20:00,2,0,0,0,0,30,29,70,35,0,32,27,22
12/02/94,17:25:00,0,0,0,0,0,31,29,70,35,0,27,29,25
12/02/94,17:30:00,0,0,1,0,0,31,30,70,37,0,27,32,31
12/02/94,17:35:00,2,0,0,0,0,32,31,70,37,0,33,26,31
12/02/94,17:40:00,0,0,0,0,0,33,31,70,37,0,27,35,25
12/02/94,17:45:00,0,0,0,0,0,33,32,70,35,0,24,22,21
12/02/94,17:50:00,0,0,0,0,0,34,32,70,35,0,32,31,28
12/02/94,17:55:00,0,0,0,0,0,34,33,70,35,0,28,25,30
12/02/94,18:00:00,0,0,0,0,0,35,34,70,35,0,23,29,25
12/02/94,18:05:00,0,0,0,0,0,36,34,69,35,0,29,29,21
12/02/94,18:10:00,0,0,0,0,0,36,34,70,35,0,31,25,30
12/02/94,18:15:00,0,0,0,0,0,37,35,70,37,0,25,34,27
12/02/94,18:20:00,0,0,0,0,0,37,35,70,37,0,25,22,20
12/02/94,18:25:00,0,0,0,0,0,38,36,69,37,0,32,32,25
12/02/94,18:30:00,0,0,0,0,0,38,37,69,35,0,26,25,29
12/02/94,18:35:00,0,0,0,0,0,39,37,69,35,0,24,28,21
12/02/94,18:40:00,0,0,0,0,0,39,37,69,35,0,30,29,23
12/02/94,18:45:00,0,0,0,0,0,40,38,69,35,0,27,23,31
12/02/94,18:50:00,0,0,0,0,0,41,39,69,35,0,23,33,20
12/02/94,18:55:00,0,0,0,0,0,42,40,69,37,0,31,21,23
12/02/94,19:00:00,0,0,0,0,0,43,41,69,37,0,26,30,30
12/02/94,19:05:00,0,0,0,0,0,44,42,69,37,0,23,25,22
12/02/94,19:10:00,0,0,0,0,0,45,43,69,35,0,29,25,22
12/02/94,19:15:00,0,0,0,0,0,45,43,69,35,0,25,30,29
12/02/94,19:20:00,0,0,0,0,0,46,44,69,35,0,23,21,20
12/02/94,19:25:00,0,0,0,0,0,47,45,69,35,0,30,30,23
12/02/94,19:30:00,0,0,0,0,0,48,46,69,35,0,21,23,25
12/02/94,19:35:00,0,0,0,0,0,49,47,69,38,0,26,24,19
12/02/94,19:40:00,0,0,0,0,0,50,48,69,38,0,25,29,26
12/02/94,19:45:00,0,0,0,0,0,52,50,69,38,0,23,20,19
12/02/94,19:50:00,0,0,0,0,0,56,54,68,36,0,29,29,21
12/02/94,19:55:00,0,0,0,0,0,63,60,68,36,0,19,22,19
12/02/94,20:00:00,0,0,0,0,0,52,55,68,36,0,27,19,19
12/02/94,20:05:00,0,0,0,0,0,36,32,68,36,0,19,30,24
12/02/94,20:10:00,0,0,0,0,0,39,44,68,36,0,26,21,18
12/02/94,20:15:00,0,3,0,0,0,37,35,71,44,0,25,24,28
12/02/94,20:20:00,0,0,0,0,0,59,48,71,46,0,23,29,20
12/02/94,20:25:00,0,0,0,0,0,40,38,71,46,0,31,22,24
12/02/94,20:30:00,0,0,0,0,0,59,46,71,44,0,20,31,23
12/02/94,20:35:00,0,0,0,0,0,39,36,71,44,0,30,21,20
12/02/94,20:40:00,0,0,0,0,0,36,35,71,43,0,27,28,30
12/02/94,20:45:00,0,0,0,0,0,45,40,71,43,0,24,27,20
12/02/94,20:50:00,0,0,0,0,0,60,54,69,43,0,31,25,24
12/02/94,20:55:00,0,0,0,0,0,56,57,69,35,0,21,29,21
12/02/94,21:00:00,0,0,0,0,0,53,53,68,37,0,24,19,20
12/02/94,21:05:00,0,0,0,0,0,63,58,68,37,0,24,26,24
12/02/94,21:10:00,0,0,0,0,0,63,60,136,37,0,21,24,18
12/02/94,21:15:00,0,0,0,0,0,80,74,135,35,0,32,27,26
12/02/94,21:20:00,0,0,0,0,0,81,63,185,43,0,26,30,30
12/02/94,21:25:00,0,0,0,0,0,47,52,139,55,0,36,31,25
12/02/94,21:30:00,0,0,0,0,0,80,76,139,55,0,33,38,34
12/02/94,21:35:00,0,0,0,0,0,44,42,70,55,0,33,28,35
12/02/94,21:40:00,0,0,0,0,0,74,66,69,57,0,35,36,26
12/02/94,21:45:00,0,0,0,0,0,61,58,69,57,0,27,25,24
12/02/94,21:50:00,0,0,0,0,0,62,61,69,56,0,27,30,29
12/02/94,21:55:00,0,0,0,0,0,48,45,69,54,0,32,28,29
12/02/94,22:00:00,0,0,0,0,0,52,52,69,55,0,26,26,23
12/02/94,22:05:00,0,0,0,0,0,55,50,69,54,0,27,32,23
12/02/94,22:10:00,0,0,0,0,0,48,46,69,55,0,32,23,31
12/02/94,22:15:00,0,0,0,0,0,46,44,69,55,0,26,34,29
12/02/94,22:20:00,0,0,0,0,0,44,42,69,55,0,29,25,24
12/02/94,22:25:00,0,0,0,0,0,42,40,69,57,0,33,31,26
12/02/94,22:30:00,0,0,0,0,0,40,39,69,56,0,28,31,33
12/02/94,22:35:00,0,0,0,0,0,41,39,69,56,0,31,28,30
12/02/94,22:40:00,0,0,0,0,0,44,42,69,55,0,33,36,24
12/02/94,22:45:00,0,0,0,0,0,41,39,70,55,0,27,25,27
12/02/94,22:50:00,0,0,0,0,0,42,40,70,55,0,32,34,33
12/02/94,22:55:00,0,0,0,0,0,44,42,70,55,0,33,26,31
12/02/94,23:00:00,0,0,0,0,0,45,43,70,55,0,26,31,26
12/02/94,23:05:00,0,0,0,0,0,44,42,70,55,0,32,32,26
12/02/94,23:10:00,0,0,0,0,0,41,39,70,57,0,33,28,35
12/02/94,23:15:00,0,0,0,0,0,36,34,70,53,0,28,36,31
12/02/94,23:20:00,0,0,0,0,0,35,33,69,53,0,34,25,25
12/02/94,23:25:00,0,0,0,0,0,33,32,69,51,0,33,35,29
12/02/94,23:30:00,0,0,0,0,0,35,33,69,43,0,26,28,34
12/02/94,23:35:00,0,0,0,0,0,34,33,69,43,0,35,31,31
12/02/94,23:40:00,0,0,0,0,0,36,34,70,54,0,30,33,26
12/02/94,23:45:00,0,0,0,0,0,43,41,69,52,0,28,27,26
12/02/94,23:50:00,0,0,0,0,0,45,43,69,54,0,35,36,32
12/02/94,23:55:00,0,0,0,0,0,45,43,70,53,0,29,25,31
12/03/94,00:00:00,0,0,0,0,0,42,40,70,53,0,29,33,25
